Wind_Speed
20 20 19 26 23 22 15 12 15 18 12 10 14 19 21 19 20 17 16 19 18 18 17 18 17 15 14 13 13 15 14 14 13 14 16 16 16 15 16 17 15 12 10 9 10 10 9 7 6
17 19 20 25 24 21 15 13 15 17 21 17 15 18 19 18 21 18 17 18 20 20 18 18 16 14 14 15 14 15 15 16 17 16 17 16 14 15 16 17 16 17 16 13 10 8 7 6 7
17 20 28 25 18 20 16 17 16 14 16 19 16 15 19 18 19 17 16 17 19 19 18 16 16 14 15 16 17 17 18 18 18 16 16 15 15 16 16 15 15 16 15 14 12 10 7 5 4
17 19 19 25 20 18 17 13 16 13 11 15 16 12 13 16 20 19 15 15 17 16 14 15 14 14 16 17 17 17 17 17 15 14 13 11 11 12 12 11 11 12 11 9 9 9 7 4 1
14 16 24 19 18 19 16 17 15 9 7 5 12 11 15 14 18 18 16 13 16 16 14 15 14 14 13 14 15 15 15 14 12 12 11 12 12 10 8 7 8 9 9 9 9 8 8 6 1
7 12 23 21 20 20 18 17 14 12 9 5 8 11 10 7 13 13 14 14 12 15 15 16 16 16 14 15 17 17 16 15 14 14 13 13 11 10 9 9 9 8 8 8 7 7 6 6 5
7 8 16 25 23 23 23 19 16 14 12 9 9 12 8 5 6 12 12 11 10 11 11 11 12 13 14 14 14 13 12 12 10 10 10 10 10 9 7 6 8 5 4 4 5 5 5 5 5
8 12 14 21 23 20 19 20 20 14 9 8 9 10 8 5 7 9 10 11 10 11 12 13 13 12 10 10 9 8 8 7 8 11 10 10 11 11 6 7 7 7 5 3 5 5 5 6 7
15 13 16 18 21 25 15 17 16 12 11 7 6 5 8 6 6 7 9 9 9 10 11 13 14 13 11 11 11 10 9 9 8 10 10 10 8 8 7 6 7 8 5 4 5 8 7 7 9
12 11 14 16 16 20 13 17 14 6 11 9 3 4 6 6 5 6 8 10 9 11 11 13 13 13 12 10 10 9 9 7 8 9 8 6 6 7 7 7 8 8 7 7 7 8 9 8 9
13 11 9 16 17 13 11 17 13 7 9 9 5 5 6 7 9 9 13 15 14 14 15 13 10 11 11 11 9 9 8 7 7 9 9 8 8 8 8 9 10 11 10 10 10 11 9 10 9
11 5 7 15 14 13 15 13 10 7 7 8 7 5 7 8 9 10 12 12 11 11 12 12 11 8 8 10 10 10 9 8 8 8 8 8 8 6 6 7 9 10 9 9 9 8 9 9 8
9 4 7 16 11 12 12 11 10 10 9 7 8 6 6 7 8 8 9 9 9 12 12 10 8 8 9 9 9 8 6 8 8 8 9 9 8 7 8 7 8 10 10 10 10 11 10 9 9
8 2 6 12 13 14 11 11 11 11 12 9 6 4 6 8 10 11 10 9 10 11 11 10 10 9 8 8 7 6 6 7 8 8 9 9 9 8 7 9 8 10 12 12 11 10 10 9 10
15 2 11 13 12 11 10 9 5 7 12 10 5 5 7 9 11 12 11 9 9 10 8 9 9 8 7 6 4 5 7 8 9 10 9 8 9 9 8 8 9 9 11 12 11 10 12 13 13
12 13 8 12 12 8 7 8 3 5 8 11 7 3 5 7 8 10 11 9 9 8 7 6 6 6 5 3 2 5 6 8 9 10 8 7 7 8 8 8 9 10 11 12 12 13 14 15 16
13 12 14 11 5 7 6 11 6 7 10 6 7 4 1 4 5 6 7 8 7 6 6 6 6 6 5 3 3 3 3 4 6 8 8 9 10 10 10 10 9 10 11 13 13 14 15 16 18
14 18 17 10 4 4 6 5 7 3 6 9 2 3 4 2 3 4 5 7 7 7 7 8 7 6 4 3 3 2 1 2 4 6 7 8 8 8 10 10 11 12 13 14 15 16 16 16 18
19 17 17 5 4 4 7 6 4 11 6 3 2 4 3 4 4 3 5 5 6 5 5 5 5 5 3 2 1 1 2 4 5 5 6 6 6 7 7 9 10 13 14 15 17 19 20 19 19
26 21 16 13 5 6 5 9 5 7 10 3 4 3 2 4 6 7 6 5 6 7 6 3 3 2 2 2 3 5 6 7 8 9 10 11 11 11 12 13 12 13 14 16 18 20 22 23 22
29 23 20 8 11 15 14 15 5 7 11 6 12 8 9 7 10 10 7 6 6 7 7 6 4 3 4 7 9 10 10 11 12 12 14 15 15 15 16 16 17 18 18 19 20 20 22 24 23
33 27 20 21 20 17 20 20 10 6 12 5 8 8 6 6 5 11 10 9 10 10 9 8 7 7 8 11 14 14 14 15 17 18 18 19 20 20 21 21 21 21 21 22 23 23 24 25 26
34 27 26 24 20 19 23 26 15 16 15 9 6 5 10 13 9 10 13 14 15 15 13 12 12 12 14 16 18 20 20 20 20 22 21 22 22 23 24 24 24 23 22 23 23 24 26 28 28
34 35 34 28 26 30 26 25 22 17 8 14 12 11 12 10 14 13 12 14 16 19 17 14 16 17 20 22 23 24 28 24 24 25 24 22 23 24 25 25 25 25 26 27 26 26 28 31 31
44 41 39 38 36 34 30 31 20 6 9 11 10 12 8 10 9 13 16 13 15 19 25 25 22 23 22 23 22 20 20 20 23 25 24 23 24 25 26 27 28 28 27 27 26 27 29 32 32
47 47 45 38 32 31 34 38 13 11 12 9 9 14 8 4 10 10 19 28 24 20 22 20 15 17 19 18 16 18 18 19 21 23 24 24 26 27 28 28 28 27 25 26 27 30 32 34 34
52 56 45 44 39 37 35 36 30 18 17 18 9 14 9 9 9 14 11 11 17 20 17 17 17 17 18 18 18 20 21 23 24 23 24 25 27 29 30 31 28 28 28 28 29 33 36 36 36
57 55 49 50 45 45 45 44 44 35 22 19 14 14 12 12 9 13 9 7 5 7 12 15 18 21 22 23 23 23 27 28 27 25 26 26 27 32 29 29 28 28 29 29 31 34 36 37 39
58 56 57 49 45 41 35 33 31 35 24 18 16 19 15 11 8 12 15 2 3 1 7 15 19 23 24 26 28 28 30 31 32 30 29 27 28 32 29 29 28 29 31 33 35 36 38 40 41
59 53 52 48 40 36 33 33 31 26 21 17 21 16 12 12 12 12 14 12 7 8 11 11 16 18 21 26 29 30 32 33 33 33 32 30 31 30 30 30 30 30 32 35 37 39 41 43 43
Wind_Direction
72 58 63 62 67 67 58 93 117 111 112 116 123 115 107 105 98 102 102 101 104 105 104 99 99 92 94 90 80 72 72 68 69 67 68 64 60 62 56 53 48 47 44 36 24 25 24 42 79
66 56 59 55 59 64 63 90 100 108 108 117 118 121 118 115 112 100 98 96 101 103 96 93 91 94 91 89 80 73 67 66 64 61 64 62 59 58 59 54 49 44 41 35 28 16 22 51 85
50 65 64 57 53 65 57 73 81 88 97 112 117 123 121 112 106 98 97 98 97 100 105 102 96 95 87 80 75 70 68 67 65 69 64 58 60 61 60 52 47 45 41 32 23 20 14 43 72
82 72 76 83 70 62 71 73 80 90 104 118 114 116 113 122 116 113 112 110 110 105 105 100 93 88 81 78 77 73 70 70 69 67 66 60 56 54 52 46 47 47 41 37 23 17 10 18 55
84 66 72 85 74 66 70 68 69 78 89 99 125 123 123 137 126 123 117 117 118 107 105 99 95 88 89 87 81 80 81 79 77 70 60 54 50 45 37 37 46 55 46 30 16 3 5 355 322
78 51 47 68 77 67 67 73 66 66 63 95 114 117 120 151 129 123 121 121 117 111 102 96 90 86 84 85 84 78 73 67 62 59 52 47 37 30 30 27 29 46 38 24 12 6 359 347 349
82 51 51 52 66 68 62 54 74 65 44 42 89 103 111 156 142 137 140 133 127 117 111 107 103 95 87 77 70 64 54 48 43 42 42 38 26 23 10 13 16 22 42 22 359 352 1 344 330
92 82 62 57 53 48 58 63 44 39 47 52 67 102 107 116 126 135 136 132 127 117 115 109 101 97 88 73 57 55 58 53 41 43 49 50 43 28 31 2 4 356 1 2 324 311 305 308 306
107 99 68 67 54 35 62 59 23 16 48 31 67 72 111 116 126 136 139 137 132 120 110 99 92 89 89 80 74 69 76 71 63 63 58 51 34 25 25 4 356 1 350 343 320 297 287 280 287
128 96 86 71 41 26 42 36 13 25 55 39 44 85 98 118 128 137 141 129 121 117 117 119 104 94 92 90 85 82 75 67 49 47 44 43 22 12 9 354 358 348 333 327 314 300 287 274 272
126 109 59 50 21 24 26 18 17 356 38 47 28 76 90 114 120 130 124 122 118 115 116 126 109 90 89 95 91 91 80 66 41 35 27 21 22 22 17 354 346 338 324 315 321 321 309 302 286
121 48 21 39 24 46 42 34 44 25 42 60 54 46 85 98 117 120 124 123 121 120 124 121 114 103 96 90 91 75 60 45 35 20 12 18 22 21 10 356 346 343 346 338 330 324 318 318 316
106 60 13 57 38 57 29 56 55 45 42 57 59 50 76 89 104 104 109 118 115 120 124 124 115 108 99 86 70 57 47 41 34 23 358 9 23 25 26 25 8 6 17 12 2 353 355 349 339
125 57 352 85 53 45 59 50 45 49 38 46 56 67 92 99 104 112 116 111 109 110 109 104 97 98 90 81 71 52 43 47 47 37 13 13 23 23 34 22 13 6 8 7 0 354 354 353 341
151 151 97 118 78 56 55 41 22 42 54 53 49 111 106 116 116 121 125 120 114 110 103 97 96 89 84 79 57 43 42 50 46 37 27 6 14 18 16 15 15 12 10 4 9 5 0 359 349
187 139 140 124 102 92 71 57 80 28 34 51 34 108 121 121 118 118 127 130 122 124 127 118 111 118 113 102 71 65 52 39 27 25 23 20 14 15 6 8 8 7 12 6 0 355 355 357 350
205 153 154 136 130 104 96 40 37 43 23 10 33 8 206 142 122 122 131 140 145 146 141 136 131 135 136 113 65 75 69 40 22 12 26 24 14 7 2 0 353 349 352 351 350 346 344 343 337
238 156 159 169 195 88 35 12 39 44 343 350 316 325 325 269 194 155 161 157 157 151 137 135 133 129 126 142 130 138 105 35 14 16 20 18 11 1 351 344 339 335 338 334 331 333 334 335 330
221 181 145 174 111 77 16 320 31 15 351 345 284 295 269 309 291 239 208 191 163 153 135 129 124 111 126 126 120 326 312 311 325 337 340 342 344 340 336 331 333 330 329 327 326 327 325 325 322
229 196 164 201 204 241 281 291 336 344 350 297 281 263 249 294 264 256 226 200 173 157 154 157 134 152 223 280 324 320 314 312 315 317 319 320 321 320 319 322 318 310 312 315 318 323 324 323 320
223 205 190 194 242 259 249 254 349 307 322 288 340 310 285 295 289 237 249 232 204 192 188 203 210 246 298 310 307 301 300 302 305 309 308 311 314 317 316 313 309 312 311 311 312 317 318 317 316
222 202 194 227 231 262 276 275 265 288 291 256 305 343 306 320 312 257 236 240 236 220 219 230 241 261 276 280 285 292 298 302 303 299 301 306 311 313 313 315 314 312 311 309 309 312 314 316 315
208 201 213 222 245 251 260 261 248 250 263 296 296 312 334 316 300 294 243 239 246 244 236 244 255 263 267 268 278 290 295 297 296 294 294 298 304 307 310 311 310 308 305 306 309 311 314 315 312
199 206 215 218 229 244 250 253 255 251 270 287 301 289 317 295 294 303 247 244 249 255 248 247 260 269 273 277 283 292 288 293 290 289 289 294 301 305 307 308 310 313 313 311 309 311 314 315 315
205 204 214 219 221 241 245 246 250 268 333 308 277 273 302 302 314 266 253 246 262 263 258 261 267 275 283 287 289 285 281 285 288 288 290 298 301 305 311 316 314 310 308 306 307 310 313 311 311
205 204 216 224 232 243 249 248 245 273 292 255 244 266 292 316 332 319 263 256 257 262 269 276 283 289 283 290 297 297 294 289 289 295 300 301 304 310 310 308 307 306 304 304 308 312 312 313 314
206 207 215 224 227 239 248 251 249 256 246 258 245 257 271 270 326 320 314 247 247 257 269 288 297 297 298 303 307 306 303 297 296 298 299 302 305 306 307 306 307 307 306 307 310 312 313 314 316
209 210 214 224 232 237 241 245 243 244 229 250 239 248 260 274 323 319 303 228 218 262 275 285 292 295 299 300 297 299 301 300 300 298 300 300 300 301 301 299 305 304 303 304 308 310 312 313 313
212 214 219 226 234 245 254 229 224 224 231 231 243 254 261 283 308 304 318 316 99 4 328 322 305 293 292 290 289 293 296 298 298 297 296 297 296 293 294 298 302 304 305 305 307 309 311 312 312
215 219 220 226 232 241 240 232 224 238 238 233 240 255 264 274 287 297 292 300 326 335 332 338 338 314 295 291 291 294 294 296 293 291 292 292 294 294 296 301 306 306 303 303 307 311 312 312 312
Height
5885 5884 5882 5882 5887 5885 5886 5885 5883 5882 5882 5883 5885 5885 5885 5887 5888 5891 5890 5888 5889 5889 5891 5891 5891 5894 5894 5895 5896 5896 5897 5898 5899 5898 5899 5900 5900 5901 5901 5900 5901 5901 5900 5900 5899 5898 5898 5899 5899
5888 5886 5884 5882 5887 5887 5890 5887 5887 5885 5883 5885 5886 5887 5887 5888 5888 5890 5893 5892 5892 5891 5893 5894 5896 5898 5899 5898 5900 5899 5900 5900 5898 5900 5900 5901 5902 5901 5901 5901 5903 5902 5900 5900 5899 5898 5899 5900 5899
5892 5889 5888 5887 5887 5887 5892 5890 5890 5890 5890 5888 5889 5890 5889 5890 5890 5892 5894 5895 5893 5894 5895 5896 5897 5900 5900 5900 5899 5900 5899 5899 5900 5901 5901 5901 5902 5902 5901 5903 5903 5901 5901 5900 5899 5900 5900 5900 5901
5895 5895 5894 5892 5889 5890 5891 5892 5892 5893 5893 5892 5891 5893 5893 5893 5892 5893 5895 5895 5895 5896 5897 5898 5899 5900 5901 5902 5901 5901 5900 5900 5901 5901 5902 5902 5904 5902 5902 5903 5904 5902 5902 5900 5900 5900 5900 5901 5902
5897 5898 5897 5895 5892 5891 5891 5893 5894 5895 5895 5895 5893 5895 5895 5896 5894 5895 5896 5897 5896 5897 5899 5899 5900 5901 5903 5903 5902 5901 5902 5902 5903 5903 5903 5904 5903 5902 5904 5904 5903 5902 5902 5901 5901 5901 5901 5901 5901
5898 5899 5900 5898 5895 5893 5893 5893 5895 5897 5898 5897 5895 5896 5898 5899 5896 5897 5898 5899 5899 5899 5900 5901 5902 5903 5904 5904 5903 5903 5904 5904 5905 5904 5905 5905 5904 5904 5905 5904 5904 5903 5903 5903 5902 5902 5902 5901 5901
5900 5902 5902 5899 5897 5896 5896 5897 5896 5897 5898 5897 5896 5897 5899 5900 5899 5898 5899 5900 5901 5901 5902 5903 5905 5906 5906 5905 5904 5905 5905 5906 5906 5906 5906 5906 5905 5905 5904 5903 5903 5904 5904 5903 5902 5902 5901 5900 5900
5903 5904 5902 5901 5902 5901 5900 5899 5899 5902 5902 5901 5899 5898 5901 5901 5900 5900 5901 5902 5902 5903 5904 5905 5906 5907 5907 5907 5907 5907 5907 5907 5907 5907 5907 5907 5906 5905 5904 5904 5903 5904 5904 5903 5902 5901 5901 5900 5899
5905 5904 5903 5903 5903 5905 5903 5901 5903 5905 5904 5904 5903 5902 5902 5902 5902 5902 5903 5904 5904 5904 5905 5906 5907 5908 5909 5909 5909 5910 5909 5908 5908 5908 5908 5907 5906 5905 5904 5904 5903 5904 5903 5902 5901 5900 5899 5899 5898
5906 5906 5904 5904 5905 5906 5908 5906 5906 5907 5906 5906 5906 5905 5904 5904 5905 5904 5904 5904 5905 5905 5907 5908 5910 5910 5910 5911 5911 5911 5910 5911 5909 5909 5908 5908 5907 5906 5906 5905 5903 5903 5902 5901 5900 5899 5898 5897 5896
5906 5905 5907 5904 5906 5907 5909 5908 5908 5908 5907 5908 5908 5907 5907 5906 5906 5906 5905 5906 5907 5908 5909 5910 5911 5911 5911 5912 5912 5912 5912 5912 5910 5910 5909 5908 5908 5908 5906 5905 5903 5903 5902 5900 5899 5898 5897 5896 5895
5907 5907 5908 5905 5906 5907 5908 5910 5911 5910 5910 5909 5909 5909 5907 5907 5907 5908 5908 5908 5909 5909 5910 5911 5912 5913 5913 5914 5914 5913 5913 5913 5911 5910 5909 5908 5908 5907 5906 5905 5904 5902 5901 5899 5898 5897 5896 5895 5893
5904 5905 5906 5905 5907 5908 5910 5912 5912 5913 5912 5910 5909 5910 5909 5909 5908 5908 5908 5909 5910 5910 5911 5912 5913 5913 5914 5914 5914 5914 5913 5913 5912 5910 5910 5909 5908 5907 5906 5905 5904 5902 5900 5898 5896 5894 5894 5893 5892
5903 5904 5905 5906 5906 5906 5909 5910 5912 5913 5913 5911 5911 5912 5911 5911 5911 5911 5911 5912 5912 5912 5912 5913 5914 5914 5914 5915 5916 5915 5914 5914 5913 5911 5910 5909 5907 5907 5906 5906 5904 5903 5901 5899 5897 5895 5894 5893 5891
5900 5903 5905 5906 5906 5908 5910 5912 5913 5913 5914 5914 5914 5914 5914 5914 5913 5913 5912 5913 5913 5913 5914 5914 5915 5915 5916 5916 5917 5915 5915 5914 5913 5912 5911 5909 5907 5907 5907 5905 5904 5903 5902 5899 5898 5896 5894 5891 5890
5900 5901 5907 5908 5908 5912 5915 5915 5914 5914 5914 5914 5916 5916 5916 5916 5915 5914 5914 5914 5914 5914 5915 5915 5916 5916 5917 5917 5917 5916 5914 5913 5912 5912 5910 5909 5908 5908 5906 5905 5904 5903 5901 5899 5898 5895 5893 5891 5889
5899 5902 5906 5907 5910 5912 5914 5914 5914 5914 5913 5914 5914 5915 5916 5915 5914 5914 5914 5914 5914 5914 5915 5916 5917 5917 5917 5917 5917 5917 5916 5915 5913 5912 5911 5909 5907 5906 5905 5904 5902 5900 5899 5897 5896 5894 5892 5891 5888
5899 5898 5905 5910 5912 5912 5912 5914 5914 5913 5914 5913 5913 5914 5914 5917 5915 5913 5914 5914 5913 5914 5915 5915 5915 5915 5916 5916 5916 5916 5915 5914 5913 5912 5911 5910 5908 5906 5904 5902 5900 5898 5897 5895 5894 5892 5890 5889 5886
5896 5899 5906 5909 5910 5911 5912 5914 5915 5913 5913 5912 5912 5912 5912 5913 5914 5914 5913 5913 5913 5913 5913 5914 5914 5914 5916 5915 5915 5914 5913 5913 5912 5911 5910 5908 5907 5905 5903 5901 5899 5897 5895 5894 5891 5889 5888 5888 5885
5893 5895 5900 5903 5908 5909 5911 5912 5913 5912 5912 5912 5913 5913 5913 5914 5915 5915 5914 5912 5912 5912 5913 5914 5914 5914 5915 5915 5914 5912 5912 5911 5910 5909 5907 5905 5904 5902 5900 5898 5897 5895 5894 5892 5889 5886 5884 5883 5881
5891 5895 5900 5902 5903 5905 5906 5907 5911 5911 5912 5912 5913 5913 5912 5912 5912 5913 5913 5912 5911 5912 5912 5913 5913 5913 5912 5912 5912 5911 5910 5908 5907 5906 5904 5902 5900 5899 5897 5895 5893 5891 5889 5887 5886 5883 5880 5878 5876
5890 5896 5899 5899 5897 5900 5903 5903 5907 5909 5910 5912 5912 5912 5910 5909 5909 5910 5910 5911 5911 5911 5911 5911 5910 5910 5909 5910 5910 5909 5907 5905 5904 5902 5900 5898 5897 5895 5893 5890 5888 5886 5884 5882 5881 5879 5876 5873 5871
5891 5894 5896 5896 5894 5894 5896 5898 5904 5905 5907 5909 5910 5909 5908 5906 5906 5906 5907 5907 5909 5909 5909 5908 5907 5907 5907 5907 5907 5905 5903 5902 5900 5898 5897 5895 5893 5891 5888 5886 5883 5881 5879 5877 5874 5872 5870 5867 5864
5890 5889 5889 5890 5889 5885 5891 5895 5896 5900 5903 5905 5907 5907 5906 5904 5903 5902 5903 5903 5905 5906 5905 5904 5904 5904 5904 5904 5903 5902 5899 5897 5896 5894 5892 5891 5888 5886 5883 5881 5878 5875 5872 5870 5868 5866 5865 5863 5860
5878 5882 5882 5883 5880 5879 5888 5888 5891 5897 5899 5901 5902 5903 5903 5902 5898 5899 5900 5901 5901 5902 5901 5900 5901 5901 5900 5899 5899 5897 5896 5894 5892 5890 5887 5884 5882 5879 5876 5874 5872 5870 5868 5866 5864 5862 5859 5856 5853
5872 5876 5876 5875 5877 5880 5881 5878 5888 5893 5894 5897 5898 5899 5899 5898 5896 5896 5896 5897 5897 5896 5896 5896 5896 5897 5895 5894 5892 5891 5891 5890 5888 5885 5882 5879 5876 5873 5871 5869 5867 5866 5863 5861 5858 5855 5852 5848 5845
5864 5864 5873 5872 5871 5874 5875 5877 5882 5887 5890 5892 5894 5895 5896 5895 5894 5896 5894 5892 5891 5890 5891 5892 5892 5891 5890 5888 5886 5886 5885 5883 5881 5879 5876 5873 5870 5869 5867 5864 5861 5860 5857 5853 5851 5848 5845 5841 5837
5853 5863 5864 5863 5864 5865 5869 5871 5876 5882 5885 5886 5887 5890 5891 5892 5892 5893 5891 5889 5888 5888 5889 5889 5887 5886 5884 5883 5882 5881 5879 5877 5874 5872 5871 5869 5867 5864 5862 5859 5856 5854 5850 5847 5844 5840 5837 5833 5829
5847 5850 5855 5859 5859 5859 5862 5865 5871 5875 5879 5881 5884 5886 5887 5889 5889 5890 5889 5886 5886 5887 5887 5885 5882 5880 5878 5877 5877 5876 5873 5870 5867 5865 5864 5862 5860 5858 5855 5852 5849 5846 5842 5839 5836 5833 5829 5824 5819
5840 5844 5849 5850 5852 5854 5856 5861 5868 5871 5872 5875 5878 5881 5882 5884 5886 5885 5884 5884 5883 5884 5883 5882 5879 5876 5873 5871 5870 5868 5866 5862 5859 5857 5856 5856 5855 5851 5847 5844 5841 5837 5835 5832 5829 5825 5820 5815 5810